[[{"header":{"parameterUnit":"m.s-1","parameterCategory":1,"la1":30.2991,"la2":30.254,"lo1":-89.0895,"lo2":-89.0444,"dy":0.0017,"dx":0.0017,"nx":28,"ny":28,"refTime":"2024-03-06T03:00:00:Z","depth":0,"parameterNumber":2,"parameterNumberName":"U-component_of_WINDS"},"data":[0,0,0,0,0,0,0,0,0,0,0,0,0,0,0,0,0,0,0,0,0,0,0,0,0,0,0,0,0,0,0,0,0,0,0,0,0,0,0,0,0,0,0,0,0,0,0,0,0,0,0,0,0,0,0,0,0,0,2.0149,2.015,0,2.0211,2.0212,2.0212,2.0201,2.02,2.0199,2.0198,2.0262,2.0265,2.0267,0,0,0,0,0,0,0,0,0,0,0,0,0,2.0024,2.0027,2.0149,2.015,2.0151,2.0211,2.0212,2.0213,2.0201,2.02,2.0199,2.0197,2.0261,2.0264,2.0268,0,0,0,0,0,0,0,0,0,0,0,0,0,2.0082,2.0028,2.0149,2.0153,2.0153,2.0211,2.0212,2.0213,2.0202,2.02,2.0198,2.0197,2.026,2.0264,2.0268,2.0326,0,0,2.028,2.0282,0,0,0,0,0,0,0,0,2.0078,2.0086,2.0151,2.0152,2.0154,2.0197,2.0191,2.0251,2.0202,2.0183,2.0198,2.0196,2.0242,2.0247,2.0262,2.0329,2.0332,2.0281,2.0283,2.0285,2.0286,0,0,0,0,0,0,0,2.0074,2.0084,2.0174,2.0152,2.0154,2.0152,2.0158,2.0202,2.0221,2.0185,2.0184,2.0192,2.0242,2.0258,2.0264,2.0333,2.0281,2.0284,2.0287,2.0288,2.0453,2.0455,0,0,0,0,0,0,2.0069,2.008,2.0172,2.0176,2.0111,2.0155,2.0162,2.0185,2.022,2.0224,2.0193,2.0191,2.0252,2.0259,2.0266,2.0338,2.0285,2.0289,2.0291,2.0451,2.0453,2.0455,0,0,0,0,0,0,2.0067,2.0077,2.0169,2.0128,2.0139,2.0159,2.0184,2.0187,2.0203,2.0227,2.023,2.0206,2.0251,2.026,2.0312,2.034,2.0291,2.0294,2.0449,2.0452,2.0454,2.0481,0,0,0,0,0,0,2.0063,2.0077,2.0098,2.0128,2.0142,2.0213,2.0186,2.0189,2.021,2.0208,2.024,2.0244,2.0251,2.0306,2.0316,2.0345,2.0298,2.0446,2.045,2.0453,2.0478,2.0485,2.049,0,0,0,0,0,2.0059,2.0103,2.0099,2.011,2.0169,2.0215,2.0223,2.0229,2.0212,2.0235,2.025,2.0243,2.0335,2.0311,2.0322,2.0353,2.0445,2.0449,2.0453,2.0475,2.0483,2.049,0,0,0,0,0,0,2.0075,2.0107,2.0103,2.0158,2.0184,2.0213,2.0241,2.0238,2.0269,2.0265,2.0273,2.028,2.0333,2.0348,2.0321,2.0412,2.0388,2.0394,2.04,2.0408,2.0414,2.041,2.0301,0,0,0,0,0,2.0085,2.0119,2.0145,2.0192,2.0205,2.0221,2.0241,2.0245,2.0272,2.0282,2.0301,2.0328,2.0364,2.0387,2.042,2.048,2.0488,2.0507,2.0513,2.0518,2.0524,2.0559,2.0568,2.047,2.047,2.0469,0,0,2.0106,2.0128,2.0149,2.0196,2.0216,2.0252,2.023,2.0269,2.0296,2.0288,2.0338,2.0354,2.0384,2.0441,2.0466,2.0455,2.0553,2.0524,2.0527,2.0531,2.0564,2.0573,2.0581,2.0472,2.0472,2.0471,0,0,2.0164,2.0183,2.0224,2.0246,2.0277,2.0288,2.0298,2.0328,2.0338,2.0388,2.0383,2.0416,2.0477,2.0499,2.0519,2.0587,2.0582,2.0598,2.0631,2.0664,2.0672,2.0679,2.0705,2.0714,2.0604,2.0604,2.0604,0,2.0186,2.024,2.0246,2.0286,2.0308,2.0303,2.0346,2.0366,2.0407,2.0422,2.0408,2.0485,2.0506,2.0568,2.0585,2.06,2.0613,2.0594,2.067,2.0677,2.0684,2.0709,2.0718,2.0606,2.0605,2.0605,2.0605,0,2.0267,2.0304,2.0334,2.0374,2.0399,2.044,2.0454,2.0479,2.048,2.0493,2.0546,2.057,2.0609,2.0624,2.0626,2.0688,2.068,2.0668,2.0644,2.0695,2.0718,2.0728,2.0608,2.0608,2.0607,2.0607,0,0,2.0335,2.0379,2.039,2.0409,2.0444,2.0474,2.0516,2.0554,2.0576,2.0605,2.0641,2.0693,2.0683,2.0706,2.071,2.0739,2.0794,2.0725,2.0725,2.0738,2.0866,2.0875,2.0885,2.0791,2.0793,2.0794,2.0864,0,2.0396,2.047,2.0478,2.0544,2.0579,2.0576,2.0613,2.0639,2.0653,2.0686,2.0701,2.0738,2.0721,2.0735,2.0764,2.0781,2.082,2.0776,2.0826,2.0828,2.0819,2.0897,2.0907,2.0971,2.0873,2.0874,2.0875,0,2.0477,2.0509,2.0579,2.0611,2.0626,2.0659,2.0696,2.0727,2.0758,2.0765,2.0791,2.0792,2.0837,2.0811,2.0874,2.0844,2.0865,2.0877,2.0879,2.0884,2.0855,2.0906,2.0991,2.1001,2.089,2.0888,2.0887,0,2.0522,2.0582,2.0632,2.0648,2.0686,2.0709,2.0726,2.0755,2.0779,2.0812,2.0827,2.0865,2.0886,2.0915,2.0927,2.0907,2.099,2.0964,2.0999,2.0999,2.1016,2.1015,2.1107,2.1029,2.1029,2.1029,2.1028,0,2.0589,2.0632,2.0652,2.0683,2.0732,2.0741,2.079,2.0806,2.0832,2.0867,2.0866,2.0899,2.0913,2.0948,2.0958,2.1009,2.1018,2.1027,2.1029,2.1027,2.1026,2.1041,2.1037,2.1031,2.1031,2.103,2.103,0,2.0647,2.0662,2.0716,2.0748,2.0758,2.0792,2.082,2.0851,2.0865,2.0909,2.092,2.0941,2.0983,2.0998,2.1049,2.1056,2.1116,2.1114,2.1105,2.1106,2.114,2.1137,2.1246,2.1261,2.1172,2.1172,2.1173,0,2.069,2.0723,2.0759,2.0782,2.08,2.0838,2.0862,2.0873,2.0899,2.0937,2.0963,2.1005,2.1039,2.1107,2.1127,2.1167,2.1166,2.1202,2.1172,2.117,2.1168,2.1166,2.1171,2.1207,2.1208,2.1209,2.121,0,2.0764,2.077,2.0805,2.0843,2.0872,2.0903,2.0932,2.0951,2.0968,2.0996,2.1039,2.1066,2.1118,2.116,2.1201,2.122,2.1218,2.1219,2.1229,2.1228,2.1222,2.1227,2.1121,2.1216,2.1216,2.1215,2.1215,2.1214,2.0816,2.0846,2.0877,2.0916,2.094,2.0968,2.0999,2.1017,2.1053,2.1096,2.1101,2.1148,2.118,2.1234,2.1255,2.1293,2.1283,2.1297,2.1301,2.1305,2.1308,2.1216,2.13,2.13,2.13,2.1299,2.1299,0,2.0892,2.0912,2.0948,2.0989,2.1021,2.1016,2.105,2.1076,2.1117,2.1147,2.1181,2.1231,2.1273,2.1297,2.1339,2.1365,2.1365,2.1375,2.1374,2.1379,2.1314,2.1301,2.1374,2.1374,2.1374,2.1374,2.1374,2.1374,2.0934,2.0986,2.0996,2.1059,2.1079,2.1125,2.1145,2.1171,2.1195,2.1251,2.1286,2.1301,2.133,2.1374,2.1412,2.1419,2.1435,2.1446,2.1452,2.1391,2.1383,2.1375,2.1364,2.1449,2.1449,2.1514,2.1514,2.1515]},{"header":{"parameterUnit":"m.s-1","parameterCategory":1,"la1":30.2991,"la2":30.254,"lo1":-89.0895,"lo2":-89.0444,"dy":0.0017,"dx":0.0017,"nx":28,"ny":28,"refTime":"2024-03-06T03:00:00:Z","depth":0,"parameterNumber":3,"parameterNumberName":"V-component_of_WINDS"},"data":[0,0,0,0,0,0,0,0,0,0,0,0,0,0,0,0,0,0,0,0,0,0,0,0,0,0,0,0,0,0,0,0,0,0,0,0,0,0,0,0,0,0,0,0,0,0,0,0,0,0,0,0,0,0,0,0,0,0,-3.3988,-3.3989,0,-3.4097,-3.4099,-3.41,-3.4118,-3.4117,-3.4116,-3.4115,-3.4224,-3.4227,-3.4231,0,0,0,0,0,0,0,0,0,0,0,0,0,-3.3792,-3.3796,-3.3988,-3.3989,-3.399,-3.4097,-3.4099,-3.41,-3.4118,-3.4117,-3.4116,-3.4115,-3.4222,-3.4227,-3.4231,0,0,0,0,0,0,0,0,0,0,0,0,0,-3.3887,-3.3797,-3.3987,-3.4012,-3.4016,-3.4097,-3.4099,-3.4101,-3.4119,-3.4117,-3.4116,-3.4115,-3.4221,-3.4226,-3.4232,-3.4294,0,0,-3.4249,-3.4252,0,0,0,0,0,0,0,0,-3.3881,-3.3894,-3.4007,-3.4011,-3.4015,-3.4093,-3.4069,-3.4165,-3.4119,-3.4079,-3.4115,-3.4114,-3.4181,-3.419,-3.4213,-3.4299,-3.4304,-3.425,-3.4253,-3.4255,-3.4257,0,0,0,0,0,0,0,-3.3875,-3.3889,-3.4031,-3.4009,-3.4014,-3.4018,-3.403,-3.4088,-3.4136,-3.4083,-3.4084,-3.4097,-3.4183,-3.4208,-3.4216,-3.4306,-3.4249,-3.4254,-3.4258,-3.426,-3.4452,-3.4454,0,0,0,0,0,0,-3.3864,-3.3884,-3.4027,-3.4034,-3.3944,-3.4022,-3.4036,-3.4069,-3.4136,-3.4145,-3.4098,-3.4098,-3.4199,-3.4209,-3.422,-3.43,-3.4255,-3.4261,-3.4264,-3.445,-3.4452,-3.4454,0,0,0,0,0,0,-3.386,-3.3877,-3.4023,-3.396,-3.3979,-3.4027,-3.4065,-3.4072,-3.4097,-3.4148,-3.4156,-3.4115,-3.4198,-3.4212,-3.4277,-3.4304,-3.4263,-3.4268,-3.4448,-3.4451,-3.4453,-3.4459,0,0,0,0,0,0,-3.3854,-3.3875,-3.39,-3.396,-3.3982,-3.4079,-3.4066,-3.4075,-3.4107,-3.4108,-3.4166,-3.4174,-3.4198,-3.4268,-3.4282,-3.4311,-3.4273,-3.4446,-3.4449,-3.4452,-3.4457,-3.4462,-3.4466,0,0,0,0,0,-3.3847,-3.3895,-3.3901,-3.3918,-3.4014,-3.408,-3.4093,-3.412,-3.4109,-3.4135,-3.4168,-3.4172,-3.4298,-3.4275,-3.4291,-3.4321,-3.4444,-3.4448,-3.4452,-3.4455,-3.4461,-3.4466,0,0,0,0,0,0,-3.3835,-3.3904,-3.3911,-3.398,-3.4024,-3.4083,-3.4116,-3.4125,-3.4173,-3.4171,-3.4202,-3.4215,-3.4279,-3.4306,-3.4279,-3.4387,-3.4371,-3.4378,-3.4367,-3.4373,-3.4377,-3.437,-3.4277,0,0,0,0,0,-3.3841,-3.389,-3.3947,-3.4002,-3.4025,-3.4066,-3.4096,-3.4114,-3.4161,-3.4179,-3.4217,-3.4261,-3.4311,-3.4343,-3.4392,-3.446,-3.4474,-3.4489,-3.4494,-3.4497,-3.4504,-3.4545,-3.4553,-3.4467,-3.4467,-3.4467,0,0,-3.3852,-3.3896,-3.3924,-3.4001,-3.4038,-3.4088,-3.4082,-3.4134,-3.4172,-3.4187,-3.4252,-3.4281,-3.4332,-3.4401,-3.4432,-3.4425,-3.453,-3.4502,-3.4505,-3.4509,-3.455,-3.4558,-3.4565,-3.447,-3.4469,-3.4469,0,0,-3.3899,-3.3937,-3.3989,-3.4026,-3.4083,-3.4111,-3.4123,-3.4182,-3.4202,-3.4268,-3.4281,-3.4326,-3.441,-3.4448,-3.4478,-3.4542,-3.4549,-3.4557,-3.4581,-3.462,-3.4627,-3.4633,-3.4658,-3.4667,-3.4563,-3.4563,-3.4563,0,-3.3906,-3.3984,-3.4014,-3.4067,-3.4101,-3.4119,-3.4172,-3.4207,-3.4275,-3.4298,-3.429,-3.4399,-3.4434,-3.4513,-3.4529,-3.4552,-3.4568,-3.4551,-3.4624,-3.463,-3.4637,-3.4661,-3.467,-3.4563,-3.4563,-3.4563,-3.4563,0,-3.3991,-3.4044,-3.4079,-3.4148,-3.4186,-3.4238,-3.4277,-3.4311,-3.4326,-3.4355,-3.4423,-3.4467,-3.4526,-3.4545,-3.4559,-3.4627,-3.4621,-3.4618,-3.4602,-3.4645,-3.4669,-3.4678,-3.4564,-3.4564,-3.4564,-3.4564,0,0,-3.4032,-3.412,-3.4132,-3.4165,-3.4229,-3.4271,-3.4325,-3.4385,-3.4415,-3.4462,-3.4509,-3.4582,-3.458,-3.4614,-3.4633,-3.4667,-3.4719,-3.466,-3.4662,-3.4672,-3.4798,-3.4802,-3.4812,-3.4723,-3.4725,-3.4727,-3.4795,0,-3.4089,-3.4188,-3.4218,-3.4301,-3.4352,-3.4371,-3.4418,-3.4463,-3.4492,-3.4539,-3.457,-3.4622,-3.4615,-3.4636,-3.4671,-3.4705,-3.4745,-3.47,-3.4768,-3.477,-3.4757,-3.4824,-3.4827,-3.4889,-3.4804,-3.4805,-3.4807,0,-3.4168,-3.422,-3.4309,-3.437,-3.4393,-3.4435,-3.4494,-3.4538,-3.459,-3.4608,-3.4648,-3.4664,-3.4722,-3.4702,-3.4783,-3.4752,-3.4781,-3.4803,-3.4806,-3.4814,-3.4792,-3.4836,-3.4909,-3.4919,-3.4821,-3.482,-3.4819,0,-3.4193,-3.4284,-3.435,-3.4377,-3.4449,-3.4479,-3.451,-3.4561,-3.4596,-3.4647,-3.467,-3.4726,-3.4757,-3.48,-3.4831,-3.4813,-3.491,-3.4892,-3.4927,-3.4927,-3.4947,-3.4946,-3.5028,-3.4963,-3.4963,-3.4963,-3.4963,0,-3.4254,-3.4308,-3.4363,-3.4403,-3.4465,-3.4499,-3.4559,-3.4591,-3.4636,-3.4683,-3.4701,-3.4745,-3.4783,-3.4831,-3.4856,-3.492,-3.4933,-3.495,-3.4956,-3.495,-3.4948,-3.4971,-3.4968,-3.4966,-3.4965,-3.4964,-3.4964,0,-3.4293,-3.4331,-3.4405,-3.4468,-3.4485,-3.4528,-3.4582,-3.4623,-3.4653,-3.4712,-3.4728,-3.4775,-3.4834,-3.4869,-3.4942,-3.4959,-3.5031,-3.5034,-3.5014,-3.5018,-3.5052,-3.5049,-3.5153,-3.5169,-3.5091,-3.5092,-3.5092,0,-3.433,-3.4373,-3.4442,-3.4476,-3.4508,-3.4562,-3.4599,-3.4634,-3.4671,-3.4735,-3.4768,-3.4828,-3.4879,-3.4971,-3.5012,-3.5069,-3.5075,-3.5107,-3.5083,-3.5076,-3.5078,-3.5076,-3.5081,-3.5111,-3.5112,-3.5113,-3.5113,0,-3.4393,-3.4411,-3.4464,-3.4525,-3.4569,-3.4617,-3.4666,-3.4692,-3.4735,-3.4777,-3.4838,-3.4878,-3.4954,-3.5015,-3.5075,-3.5107,-3.5118,-3.512,-3.5132,-3.5127,-3.5114,-3.5124,-3.5028,-3.5118,-3.5118,-3.5117,-3.5117,-3.5117,-3.4434,-3.4474,-3.453,-3.4589,-3.463,-3.4676,-3.4718,-3.4754,-3.4807,-3.4874,-3.489,-3.4956,-3.5008,-3.5091,-3.5124,-3.5176,-3.5171,-3.5187,-3.5191,-3.5195,-3.5197,-3.5105,-3.5186,-3.5186,-3.5186,-3.5186,-3.5186,0,-3.45,-3.4538,-3.4592,-3.4661,-3.4708,-3.4716,-3.477,-3.4809,-3.4867,-3.4915,-3.4966,-3.5037,-3.5097,-3.5142,-3.5203,-3.5235,-3.5242,-3.525,-3.5249,-3.5257,-3.5197,-3.5182,-3.5244,-3.5244,-3.5244,-3.5244,-3.5244,-3.5244,-3.454,-3.461,-3.4634,-3.4724,-3.4761,-3.4827,-3.4858,-3.49,-3.494,-3.502,-3.507,-3.51,-3.5148,-3.5213,-3.5268,-3.528,-3.5302,-3.531,-3.5323,-3.5267,-3.5261,-3.5255,-3.5241,-3.5314,-3.5314,-3.5379,-3.5379,-3.538]}]]